This demonstration page uses our WeatherBlox Daily Observations layout. Learn more.

Left ArrowRight Arrow

Hourly Observations for February 26, 2022

Temp ( °F °C ) Dew Point ( °F °C ) Humidity (%) Winds ( mph kmh ) Pressure ( in mb ) Visibility ( mi km ) Precip ( " mm )
12:53 am 00:53 Clear 32 0 23 -5 69 69 Calm 30.27 1025 10 16 0.00 0.00
1:53 am 01:53 Clear 33 0.6 22 -5.6 64 64 WNW 3 6 30.28 1025 10 16 0.00 0.00
2:53 am 02:53 Clear 34 1.1 22 -5.6 61 61 Calm 30.27 1025 10 16 0.00 0.00
3:53 am 03:53 Clear 33 0.6 23 -5 66 66 Calm 30.29 1026 10 16 0.00 0.00
4:53 am 04:53 Clear 30 -1.1 22 -5.6 72 72 Calm 30.29 1026 10 16 0.00 0.00
5:53 am 05:53 Clear 28 -2.2 21 -6.1 75 75 Calm 30.31 1026 10 16 0.00 0.00
6:53 am 06:53 Sunny 30 -1.1 21 -6.1 69 69 Calm 30.33 1027 10 16 0.00 0.00
7:53 am 07:53 Sunny 34 1.1 24 -4.4 67 67 Calm 30.36 1028 10 16 0.00 0.00
8:53 am 08:53 Sunny 42 5.6 23 -5 47 47 Calm 30.37 1029 10 16 0.00 0.00
9:53 am 09:53 Sunny 49 9.4 22 -5.6 35 35 Calm 30.37 1029 10 16 0.00 0.00
10:53 am 10:53 Sunny 52 11.1 20 -6.7 28 28 Calm 30.37 1029 10 16 0.00 0.00
11:53 am 11:53 Sunny 56 13.3 20 -6.7 24 24 Calm 30.37 1028 10 16 0.00 0.00
12:53 pm 12:53 Sunny 57 13.9 22 -5.6 26 26 SSE 3 6 30.34 1028 10 16 0.00 0.00
1:53 pm 13:53 Sunny 57 13.9 20 -6.7 24 24 SW 3 6 30.33 1027 10 16 0.00 0.00
2:53 pm 14:53 Sunny 60 15.6 19 -7.2 20 20 ESE 6 9 30.32 1027 10 16 0.00 0.00
3:53 pm 15:53 Sunny 59 15 19 -7.2 21 21 SSE 6 9 30.32 1027 10 16 0.00 0.00
4:53 pm 16:53 Sunny 58 14.4 23 -5 26 26 SSE 3 6 30.32 1027 10 16 0.00 0.00
5:53 pm 17:53 Mostly Cloudy 56 13.3 26 -3.3 32 32 Calm 30.34 1027 10 16 0.00 0.00
6:53 pm 18:53 Cloudy 56 13.3 25 -3.9 30 30 Calm 30.35 1028 10 16 0.00 0.00
7:53 pm 19:53 Cloudy 53 11.7 29 -1.7 40 40 SSE 9 15 30.38 1029 10 16 0.00 0.00
8:53 pm 20:53 Cloudy with Light Rain 52 11.1 41 5 66 66 NNE 5 7 30.41 1030 10 16 0.01 0.25
9:53 pm 21:53 Cloudy 51 10.6 40 4.4 66 66 N 3 6 30.42 1030 10 16 0.01 0.25
10:53 pm 22:53 Cloudy 51 10.6 39 3.9 64 64 N 7 11 30.41 1030 10 16 0.00 0.00
11:53 pm 23:53 Mostly Cloudy 50 10 38 3.3 63 63 N 7 11 30.39 1029 10 16 0.00 0.00

Powered by AerisWeather